Location: Newark
(25.6108°S, 54.5803°W)
Time: 13:17:36
(UTC+00:00)

Courier 1B Rocket - Pass Details

Date: 29 October 2020
Orbit: 920 x 1202 km, 28.2° (Epoch: 01 December)

Event Time Altitude Azimuth Distance (km) Brightness Sun altitude
Rises 06:37:13 0° 327° (NNW) 4,059 - -28.4°
Reaches altitude 10° 06:40:48 10° 341° (NNW) 3,072 - -27.7°
Exits shadow 06:44:42 21° 11° (N) 2,328 6.7 -27.0°
Maximum altitude 06:46:26 23° 29° (NNE) 2,222 6.8 -26.6°
Drops below altitude 10° 06:51:53 10° 78° (ENE) 2,949 8.1 -25.6°
Sets 06:55:12 0° 92° (E) 3,858 9.1 -25.0°
